Location: Ailly
(50.0793°N, 1.9944°E)
Time: 19:36:36
(UTC+00:00)

FengYun 1-2 T - Pass Details

Date: 15 January 2026
Orbit: 844 x 880 km, 98.8° (Epoch: 14 February)

Event Time Altitude Azimuth Distance (km) Brightness Sun altitude
Rises 05:21:04 0° 11° (NNE) 3,466 7.5 -22.4°
Reaches altitude 10° 05:23:31 10° 7° (N) 2,519 6.7 -22.0°
Maximum altitude 05:28:55 52° 293° (WNW) 1,065 4.3 -21.1°
Enters shadow 05:32:01 24° 228° (SW) 1,688 5.4 -20.7°
